Location: *
(47.6569°N, 7.4256°E)
Time: 14:31:29
(UTC+00:00)

Cosmos 2242 Rocket - Pass Details

Date: 14 December 2019
Orbit: 617 x 652 km, 82.5° (Epoch: 23 January)

Event Time Altitude Azimuth Distance (km) Brightness Sun altitude
Rises 16:50:01 0° 192° (SSW) 2,956 7.5 -11.4°
Reaches altitude 10° 16:52:16 10° 193° (SSW) 2,053 6.7 -11.7°
Maximum altitude 16:56:50 77° 279° (W) 677 3.8 -12.5°
Drops below altitude 10° 17:01:27 10° 7° (N) 2,071 6.0 -13.2°
Sets 17:03:43 0° 9° (N) 2,985 6.8 -13.5°
